RYR60DZ EGPH-LEZL

Flight info

Callsign RYR60DZ
Flight time N/A
Altitude 25000
Route GOSAM P600 FENIK L612 NAVSO/N0442F350 DCT ADZOP DCT EGTOC/N0445F370 DCT NOKIN N862 KARNO DCT ALHUP DCT ABWIV DCT PACSE DCT TONQU DCT SALCO DCT NOVAN DCT DELOG N864 MONTO N857 HIJ
Aircraft B738/M-SDE2E3FGHIRWXY/LB1

Departure

Time N/A
Airport Edinburgh Airport (EGPH)

Arrival

Time 2026-04-15 12:26
Airport Seville Airport (LEZL)
Time Latitude Longitude Altitude Speed Heading
2026-04-15 11:03 46.15818 -3.72335 37189 ft 480 kts 192°
2026-04-15 11:03 46.12492 -3.72861 37197 ft 481 kts 192°
2026-04-15 11:03 46.05826 -3.73876 37198 ft 482 kts 192°
2026-04-15 11:04 45.99139 -3.74869 37201 ft 484 kts 191°
2026-04-15 11:04 45.92437 -3.75858 37211 ft 485 kts 191°
2026-04-15 11:05 45.85719 -3.76850 37212 ft 486 kts 191°
2026-04-15 11:05 45.78989 -3.77842 37216 ft 486 kts 191°
2026-04-15 11:06 45.72260 -3.78832 37211 ft 486 kts 191°
2026-04-15 11:06 45.65538 -3.79819 37212 ft 485 kts 191°
2026-04-15 11:07 45.58832 -3.80800 37215 ft 484 kts 191°
2026-04-15 11:07 45.52139 -3.81778 37209 ft 483 kts 191°
2026-04-15 11:08 45.45465 -3.82750 37221 ft 481 kts 191°
2026-04-15 11:08 45.38814 -3.83718 37219 ft 480 kts 191°
2026-04-15 11:09 45.32179 -3.84680 37225 ft 478 kts 191°
2026-04-15 11:09 45.25565 -3.85637 37217 ft 477 kts 191°
2026-04-15 11:10 45.18970 -3.86589 37227 ft 476 kts 191°
2026-04-15 11:10 45.12390 -3.87537 37221 ft 475 kts 191°
2026-04-15 11:11 45.06928 -3.88322 37231 ft 474 kts 191°
2026-04-15 11:11 45.00361 -3.89264 37225 ft 474 kts 191°
2026-04-15 11:12 44.93805 -3.90203 37237 ft 473 kts 191°
2026-04-15 11:12 44.87248 -3.91139 37227 ft 474 kts 191°
2026-04-15 11:13 44.80694 -3.92073 37242 ft 473 kts 191°
2026-04-15 11:13 44.74136 -3.93004 37232 ft 473 kts 191°
2026-04-15 11:14 44.67581 -3.93933 37240 ft 473 kts 191°
2026-04-15 11:14 44.61028 -3.94860 37235 ft 473 kts 191°
2026-04-15 11:15 44.54474 -3.95784 37244 ft 473 kts 191°
2026-04-15 11:15 44.47919 -3.96705 37234 ft 473 kts 191°
2026-04-15 11:16 44.41371 -3.97621 37246 ft 473 kts 191°
2026-04-15 11:16 44.34826 -3.98538 37237 ft 473 kts 191°
2026-04-15 11:17 44.28213 -3.98532 37254 ft 478 kts 180°
2026-04-15 11:17 44.21576 -3.97795 37241 ft 478 kts 180°
2026-04-15 11:18 44.14946 -3.97063 37240 ft 477 kts 180°
2026-04-15 11:18 44.08322 -3.96394 37237 ft 477 kts 180°
2026-04-15 11:19 44.01710 -3.95749 37237 ft 476 kts 181°
2026-04-15 11:19 43.95104 -3.95106 37233 ft 475 kts 180°
2026-04-15 11:20 43.88512 -3.94461 37237 ft 474 kts 181°
2026-04-15 11:20 43.81926 -3.93815 37233 ft 474 kts 181°
2026-04-15 11:21 43.75358 -3.93177 37238 ft 473 kts 181°
2026-04-15 11:21 43.68795 -3.92539 37232 ft 472 kts 181°
2026-04-15 11:22 43.62243 -3.91898 37241 ft 472 kts 181°
2026-04-15 11:22 43.55701 -3.91255 37234 ft 471 kts 181°
2026-04-15 11:23 43.49161 -3.90613 37240 ft 471 kts 181°
2026-04-15 11:23 43.42650 -3.90404 37235 ft 464 kts 191°
2026-04-15 11:24 43.36252 -3.91395 37242 ft 462 kts 193°
2026-04-15 11:24 43.29856 -3.92451 37225 ft 464 kts 192°
2026-04-15 11:25 43.23439 -3.93437 37242 ft 464 kts 192°
2026-04-15 11:25 43.17003 -3.94390 37218 ft 465 kts 192°
2026-04-15 11:26 43.10560 -3.95337 37225 ft 466 kts 192°
2026-04-15 11:26 43.04103 -3.96286 37207 ft 467 kts 192°
2026-04-15 11:27 42.97650 -3.97235 37216 ft 466 kts 192°
2026-04-15 11:27 42.91316 -3.98153 37174 ft 436 kts 194°
2026-04-15 11:28 42.88374 -3.98571 37195 ft 416 kts 194°
2026-04-15 11:28 42.85547 -3.98979 37178 ft 401 kts 194°
2026-04-15 11:28 42.80046 -3.99800 37211 ft 401 kts 195°
2026-04-15 11:29 42.74427 -4.00645 37221 ft 412 kts 194°
2026-04-15 11:29 42.68660 -4.01487 37217 ft 422 kts 194°
2026-04-15 11:30 42.62769 -4.02333 37211 ft 428 kts 194°
2026-04-15 11:30 42.56830 -4.03191 37215 ft 430 kts 194°
2026-04-15 11:31 42.50869 -4.04056 37206 ft 432 kts 194°
2026-04-15 11:31 42.44894 -4.04918 37219 ft 431 kts 194°
2026-04-15 11:32 42.38935 -4.05772 37220 ft 430 kts 194°
2026-04-15 11:32 42.32990 -4.06621 37220 ft 429 kts 194°
2026-04-15 11:33 42.27068 -4.07465 37220 ft 427 kts 194°
2026-04-15 11:33 42.21166 -4.08305 37215 ft 426 kts 194°
2026-04-15 11:34 42.15284 -4.09140 37230 ft 424 kts 194°
2026-04-15 11:34 42.09416 -4.09970 37225 ft 424 kts 194°
2026-04-15 11:35 42.03557 -4.10801 37231 ft 423 kts 194°
2026-04-15 11:35 41.97673 -4.11544 37238 ft 425 kts 193°
2026-04-15 11:36 41.91763 -4.12201 37240 ft 427 kts 192°
2026-04-15 11:36 41.85837 -4.12862 37235 ft 428 kts 193°
2026-04-15 11:37 41.79891 -4.13534 37245 ft 429 kts 192°
2026-04-15 11:37 41.73922 -4.14211 37238 ft 431 kts 192°
2026-04-15 11:38 41.67938 -4.14889 37236 ft 432 kts 192°
2026-04-15 11:38 41.61940 -4.15565 37240 ft 433 kts 192°
2026-04-15 11:39 41.55927 -4.16240 37239 ft 434 kts 192°
2026-04-15 11:39 41.49910 -4.16918 37236 ft 434 kts 192°
2026-04-15 11:40 41.43886 -4.17594 37242 ft 434 kts 192°
2026-04-15 11:40 41.37864 -4.18264 37243 ft 434 kts 192°
2026-04-15 11:41 41.31835 -4.18928 37245 ft 435 kts 192°
2026-04-15 11:41 41.25809 -4.19595 37248 ft 435 kts 192°
2026-04-15 11:42 41.19781 -4.20273 37244 ft 435 kts 192°
2026-04-15 11:42 41.13748 -4.20949 37246 ft 435 kts 192°
2026-04-15 11:43 41.07717 -4.21617 37240 ft 435 kts 192°
2026-04-15 11:43 41.01684 -4.22288 37243 ft 435 kts 192°
2026-04-15 11:44 40.95651 -4.22961 37230 ft 435 kts 192°
2026-04-15 11:44 40.89612 -4.23634 37235 ft 435 kts 192°
2026-04-15 11:45 40.83575 -4.24301 37236 ft 435 kts 192°
2026-04-15 11:45 40.77530 -4.24967 37236 ft 436 kts 192°
2026-04-15 11:46 40.71472 -4.25632 37229 ft 437 kts 191°
2026-04-15 11:46 40.65413 -4.26295 37227 ft 437 kts 191°
2026-04-15 11:47 40.59344 -4.26959 37227 ft 438 kts 191°
2026-04-15 11:47 40.53263 -4.27623 37223 ft 438 kts 191°
2026-04-15 11:48 40.47174 -4.28286 37213 ft 439 kts 191°
2026-04-15 11:48 40.41083 -4.28948 37212 ft 439 kts 191°
2026-04-15 11:49 40.34998 -4.29607 37218 ft 438 kts 191°
2026-04-15 11:49 40.29948 -4.30154 37216 ft 438 kts 191°
2026-04-15 11:50 40.23877 -4.30810 37212 ft 437 kts 191°
2026-04-15 11:50 40.17814 -4.31464 37223 ft 437 kts 191°
2026-04-15 11:51 40.11742 -4.32117 37217 ft 438 kts 191°
2026-04-15 11:51 40.05670 -4.32768 37217 ft 438 kts 191°
2026-04-15 11:52 39.99591 -4.33419 37213 ft 438 kts 191°
2026-04-15 11:52 39.93555 -4.34326 37223 ft 435 kts 195°
2026-04-15 11:53 39.87605 -4.35705 37214 ft 435 kts 196°
2026-04-15 11:53 39.81643 -4.37065 37219 ft 435 kts 195°
2026-04-15 11:54 39.75663 -4.38375 37219 ft 436 kts 195°
2026-04-15 11:54 39.69686 -4.39661 37225 ft 436 kts 195°
2026-04-15 11:55 39.63694 -4.40937 37215 ft 436 kts 195°
2026-04-15 11:55 39.57707 -4.42209 37225 ft 436 kts 195°
2026-04-15 11:56 39.51728 -4.43476 37236 ft 434 kts 195°
2026-04-15 11:56 39.45759 -4.44741 37226 ft 435 kts 195°
2026-04-15 11:57 39.36788 -4.46636 37226 ft 436 kts 195°
2026-04-15 11:58 39.30797 -4.47897 37224 ft 437 kts 195°
2026-04-15 11:58 39.24805 -4.49216 37221 ft 434 kts 200°
2026-04-15 11:58 39.21942 -4.50388 37008 ft 431 kts 208°
2026-04-15 11:59 39.19270 -4.52075 36735 ft 424 kts 217°
2026-04-15 11:59 39.16823 -4.54154 36494 ft 421 kts 219°
2026-04-15 11:59 39.14399 -4.56277 36239 ft 422 kts 219°
2026-04-15 11:59 39.11969 -4.58400 35997 ft 423 kts 218°
2026-04-15 12:00 39.09522 -4.60514 35751 ft 424 kts 218°
2026-04-15 12:00 39.07059 -4.62618 35507 ft 425 kts 218°
2026-04-15 12:00 39.04591 -4.64715 35266 ft 426 kts 218°
2026-04-15 12:00 39.02120 -4.66811 35025 ft 426 kts 218°
2026-04-15 12:01 38.99642 -4.68912 34785 ft 427 kts 217°
2026-04-15 12:01 38.97163 -4.71015 34547 ft 427 kts 217°
2026-04-15 12:01 38.94682 -4.73120 34317 ft 428 kts 217°
2026-04-15 12:01 38.92195 -4.75230 34062 ft 429 kts 217°
2026-04-15 12:02 38.89703 -4.77340 33795 ft 429 kts 217°
2026-04-15 12:02 38.87203 -4.79455 33348 ft 429 kts 217°
2026-04-15 12:02 38.84706 -4.81563 32669 ft 429 kts 217°
2026-04-15 12:02 38.82211 -4.83668 32025 ft 428 kts 217°
2026-04-15 12:03 38.79737 -4.85752 31553 ft 424 kts 217°
2026-04-15 12:03 38.77281 -4.87818 31053 ft 420 kts 217°
2026-04-15 12:03 38.74846 -4.89866 30562 ft 417 kts 217°
2026-04-15 12:03 38.72429 -4.91898 30040 ft 414 kts 217°
2026-04-15 12:04 38.70033 -4.93911 29484 ft 410 kts 217°
2026-04-15 12:04 38.67660 -4.95902 28994 ft 406 kts 217°
2026-04-15 12:04 38.65310 -4.97872 28495 ft 402 kts 217°
2026-04-15 12:04 38.62980 -4.99825 27987 ft 398 kts 217°
2026-04-15 12:05 38.60671 -5.01758 27512 ft 395 kts 217°
2026-04-15 12:05 38.58377 -5.03677 27019 ft 392 kts 217°
2026-04-15 12:05 38.56100 -5.05580 26542 ft 390 kts 217°
2026-04-15 12:05 38.53835 -5.07473 26069 ft 387 kts 217°
2026-04-15 12:06 38.51590 -5.09349 25603 ft 385 kts 217°
2026-04-15 12:06 38.49420 -5.11327 25133 ft 381 kts 222°
2026-04-15 12:06 38.47394 -5.13486 24674 ft 378 kts 224°
2026-04-15 12:06 38.45427 -5.15708 24202 ft 377 kts 225°
2026-04-15 12:07 38.43472 -5.17942 23713 ft 377 kts 225°
2026-04-15 12:07 38.41519 -5.20164 23183 ft 375 kts 225°
2026-04-15 12:07 38.39565 -5.22363 22681 ft 373 kts 224°
2026-04-15 12:07 38.37617 -5.24536 22215 ft 371 kts 224°
2026-04-15 12:08 38.35676 -5.26686 21763 ft 369 kts 224°
2026-04-15 12:08 38.33743 -5.28819 21307 ft 367 kts 224°
2026-04-15 12:08 38.31815 -5.30941 20860 ft 366 kts 224°
2026-04-15 12:08 38.29893 -5.33053 20404 ft 364 kts 224°
2026-04-15 12:09 38.27977 -5.35155 19966 ft 363 kts 224°
2026-04-15 12:09 38.26068 -5.37248 19524 ft 362 kts 224°
2026-04-15 12:09 38.24163 -5.39335 19070 ft 362 kts 224°
2026-04-15 12:09 38.22257 -5.41422 18626 ft 362 kts 224°
2026-04-15 12:10 38.20348 -5.43510 18115 ft 362 kts 223°
2026-04-15 12:10 38.18444 -5.45590 17650 ft 360 kts 223°
2026-04-15 12:10 38.16545 -5.47663 17198 ft 359 kts 223°
2026-04-15 12:10 38.14657 -5.49724 16751 ft 357 kts 224°
2026-04-15 12:11 38.12782 -5.51769 16322 ft 355 kts 224°
2026-04-15 12:11 38.10914 -5.53804 15898 ft 353 kts 223°
2026-04-15 12:11 38.09055 -5.55829 15473 ft 352 kts 223°
2026-04-15 12:11 38.07202 -5.57847 15036 ft 350 kts 223°
2026-04-15 12:12 38.05356 -5.59855 14617 ft 349 kts 223°
2026-04-15 12:12 38.03514 -5.61855 14199 ft 348 kts 223°
2026-04-15 12:12 38.01675 -5.63851 13725 ft 347 kts 223°
2026-04-15 12:12 37.99846 -5.65837 13285 ft 346 kts 223°
2026-04-15 12:13 37.98021 -5.67817 12827 ft 345 kts 223°
2026-04-15 12:13 37.96205 -5.69787 12399 ft 343 kts 223°
2026-04-15 12:13 37.94392 -5.71751 11975 ft 342 kts 223°
2026-04-15 12:13 37.92589 -5.73703 11556 ft 341 kts 223°
2026-04-15 12:14 37.90788 -5.75650 11137 ft 340 kts 223°
2026-04-15 12:14 37.88995 -5.77588 10801 ft 337 kts 222°
2026-04-15 12:14 37.87239 -5.79482 10660 ft 327 kts 222°
2026-04-15 12:14 37.85529 -5.81325 10455 ft 320 kts 222°
2026-04-15 12:15 37.83840 -5.83147 10198 ft 316 kts 222°
2026-04-15 12:15 37.82184 -5.84932 10018 ft 309 kts 222°
2026-04-15 12:15 37.80565 -5.86675 9938 ft 299 kts 222°
2026-04-15 12:15 37.79009 -5.88350 9720 ft 292 kts 222°
2026-04-15 12:16 37.77440 -5.90039 9172 ft 295 kts 222°
2026-04-15 12:16 37.75887 -5.91710 8806 ft 293 kts 222°
2026-04-15 12:16 37.74337 -5.93375 8495 ft 292 kts 221°
2026-04-15 12:16 37.72787 -5.95039 8174 ft 292 kts 221°
2026-04-15 12:17 37.71243 -5.96697 7884 ft 291 kts 221°
2026-04-15 12:17 37.69701 -5.98351 7572 ft 291 kts 221°
2026-04-15 12:17 37.68162 -6.00004 7271 ft 290 kts 221°
2026-04-15 12:17 37.66629 -6.01648 6967 ft 289 kts 221°
2026-04-15 12:18 37.65133 -6.03336 6637 ft 289 kts 225°
2026-04-15 12:18 37.63691 -6.05098 6307 ft 288 kts 224°
2026-04-15 12:18 37.62178 -6.06755 5971 ft 287 kts 220°
2026-04-15 12:18 37.60601 -6.08290 5664 ft 286 kts 217°
2026-04-15 12:19 37.59024 -6.09753 5361 ft 284 kts 219°
2026-04-15 12:19 37.57457 -6.11250 5106 ft 281 kts 212°
2026-04-15 12:19 37.55705 -6.12266 4977 ft 273 kts 199°
2026-04-15 12:19 37.53917 -6.12952 4864 ft 264 kts 196°
2026-04-15 12:20 37.52169 -6.13545 4755 ft 257 kts 195°
2026-04-15 12:20 37.50461 -6.14079 4666 ft 247 kts 193°
2026-04-15 12:20 37.48824 -6.14525 4527 ft 237 kts 191°
2026-04-15 12:20 37.47223 -6.14871 4289 ft 229 kts 189°
2026-04-15 12:21 37.45668 -6.15149 4054 ft 222 kts 187°
2026-04-15 12:21 37.44171 -6.15329 3920 ft 209 kts 184°
2026-04-15 12:21 37.42767 -6.15250 3774 ft 197 kts 160°
2026-04-15 12:21 37.41776 -6.14177 3549 ft 189 kts 113°
2026-04-15 12:22 37.41675 -6.12580 3389 ft 185 kts 83°
2026-04-15 12:22 37.41745 -6.10935 3127 ft 191 kts 90°
2026-04-15 12:22 37.41749 -6.09262 2863 ft 191 kts 90°
2026-04-15 12:22 37.41748 -6.07593 2614 ft 190 kts 90°
2026-04-15 12:23 37.41750 -6.05948 2351 ft 184 kts 90°
2026-04-15 12:23 37.41754 -6.04390 2119 ft 174 kts 90°
2026-04-15 12:23 37.41756 -6.02905 1888 ft 164 kts 90°
2026-04-15 12:23 37.41759 -6.01538 1684 ft 150 kts 90°
2026-04-15 12:24 37.41762 -6.00223 1495 ft 151 kts 90°
2026-04-15 12:24 37.41766 -5.98918 1278 ft 147 kts 90°
2026-04-15 12:24 37.41769 -5.97633 1098 ft 148 kts 90°
2026-04-15 12:24 37.41772 -5.96324 922 ft 151 kts 89°
2026-04-15 12:25 37.41776 -5.94997 722 ft 152 kts 90°
2026-04-15 12:25 37.41777 -5.93665 508 ft 153 kts 90°
2026-04-15 12:25 37.41786 -5.92343 313 ft 150 kts 89°
2026-04-15 12:25 37.41789 -5.91031 111 ft 149 kts 90°
2026-04-15 12:26 37.41793 -5.89857 98 ft 108 kts 91°
2026-04-15 12:26 37.41795 -5.89188 100 ft 56 kts 89°
2026-04-15 12:26 37.41792 -5.88830 103 ft 15 kts 85°
2026-04-15 12:26 37.41861 -5.88771 103 ft 13 kts 10°
2026-04-15 12:27 37.41947 -5.88752 102 ft 13 kts
2026-04-15 12:27 37.41986 -5.88831 101 ft 12 kts 270°
2026-04-15 12:27 37.41985 -5.88938 101 ft 13 kts 270°
2026-04-15 12:27 37.41984 -5.89068 100 ft 18 kts 269°
2026-04-15 12:28 37.41983 -5.89254 99 ft 23 kts 270°
2026-04-15 12:28 37.42015 -5.89400 100 ft 15 kts 318°
2026-04-15 12:28 37.42089 -5.89493 97 ft 13 kts 315°
2026-04-15 12:28 37.42140 -5.89558 95 ft 11 kts 314°
2026-04-15 12:29 37.42194 -5.89629 95 ft 12 kts 314°
2026-04-15 12:29 37.42239 -5.89686 94 ft 4 kts 315°
2026-04-15 12:29 37.42259 -5.89711 93 ft 5 kts 315°
2026-04-15 12:29 37.42302 -5.89733 93 ft 9 kts 16°
2026-04-15 12:30 37.42367 -5.89667 93 ft 14 kts 13°
2026-04-15 12:30 37.42441 -5.89727 93 ft 9 kts 358°
2026-04-15 12:30 37.42462 -5.89695 93 ft 3 kts 94°
2026-04-15 12:30 37.42462 -5.89694 94 ft 0 kts 94°